| time (UTC) | temp F | wind direction | speed MPH | gust MPH | rain 1hr in | rain 24hr in | rain mn in | humidity % | barometer mb |
| 20260901022108 | 80 | 98 | 8.0 | 14.0 | 0.00 | 0.01 | 0.01 | 80 | 1021.4 |
| 20260901021603 | 80 | 77 | 11.0 | 15.0 | 0.00 | 0.01 | 0.01 | 81 | 1021.4 |
| 20260901021058 | 80 | 56 | 6.0 | 18.0 | 0.00 | 0.01 | 0.01 | 81 | 1021.6 |
| 20260901020554 | 80 | 61 | 8.0 | 15.0 | 0.00 | 0.01 | 0.01 | 80 | 1021.5 |
| 20260901020050 | 80 | 22 | 9.0 | 16.0 | 0.00 | 0.01 | 0.01 | 80 | 1021.4 |
| 20260901015545 | 80 | 75 | 10.0 | 17.0 | 0.00 | 0.01 | 0.01 | 81 | 1021.5 |
| 20260901015044 | 80 | 86 | 9.0 | 14.0 | 0.00 | 0.01 | 0.01 | 82 | 1021.4 |
| 20260901014540 | 80 | 13 | 6.0 | 17.0 | 0.00 | 0.01 | 0.01 | 82 | 1021.3 |
| 20260901014036 | 80 | 83 | 12.0 | 18.0 | 0.00 | 0.01 | 0.01 | 82 | 1021.4 |
| 20260901013532 | 80 | 75 | 12.0 | 15.0 | 0.00 | 0.01 | 0.01 | 82 | 1021.6 |
| 20260901013027 | 80 | 100 | 8.0 | 18.0 | 0.00 | 0.01 | 0.01 | 82 | 1021.4 |
| 20260901012527 | 80 | 88 | 16.0 | 19.0 | 0.00 | 0.01 | 0.01 | 82 | 1021.4 |
| 20260901012022 | 80 | 111 | 6.0 | 13.0 | 0.00 | 0.01 | 0.01 | 82 | 1021.5 |
| 20260901011519 | 80 | 153 | 6.0 | 13.0 | 0.00 | 0.01 | 0.01 | 82 | 1021.2 |
| 20260901011016 | 80 | 111 | 9.0 | 14.0 | 0.00 | 0.01 | 0.01 | 82 | 1021.3 |
| 20260901010511 | 80 | 89 | 8.0 | 14.0 | 0.00 | 0.01 | 0.01 | 81 | 1021.3 |
| 20260901010010 | 80 | 130 | 6.0 | 15.0 | 0.00 | 0.01 | 0.01 | 81 | 1021.4 |
| 20260901005505 | 80 | 97 | 6.0 | 17.0 | 0.00 | 0.01 | 0.01 | 81 | 1021.3 |
| 20260901005000 | 80 | 117 | 11.0 | 17.0 | 0.00 | 0.01 | 0.01 | 81 | 1021.2 |
| 20260901004500 | 80 | 89 | 17.0 | 21.0 | 0.00 | 0.01 | 0.01 | 81 | 1021.3 |
| 20260901003955 | 80 | 113 | 11.0 | 16.0 | 0.00 | 0.01 | 0.01 | 81 | 1021.3 |
| 20260901003450 | 80 | 63 | 11.0 | 18.0 | 0.00 | 0.01 | 0.01 | 81 | 1021.1 |
| 20260901002948 | 80 | 109 | 12.0 | 18.0 | 0.00 | 0.01 | 0.01 | 82 | 1021.0 |
| 20260901002448 | 80 | 112 | 15.0 | 19.0 | 0.00 | 0.01 | 0.01 | 82 | 1020.9 |
| 20260901001947 | 81 | 105 | 9.0 | 16.0 | 0.00 | 0.01 | 0.01 | 81 | 1020.9 |
| 20260901001443 | 81 | 116 | 11.0 | 17.0 | 0.00 | 0.01 | 0.01 | 81 | 1020.8 |
| 20260901000938 | 81 | 63 | 11.0 | 19.0 | 0.00 | 0.01 | 0.01 | 82 | 1020.7 |
| 20260901000435 | 81 | 94 | 12.0 | 17.0 | 0.00 | 0.01 | 0.01 | 83 | 1020.7 |
| 20260831235932 | 82 | 88 | 13.0 | 18.0 | 0.00 | 0.01 | 0.01 | 83 | 1020.6 |
| 20260831235428 | 82 | 137 | 6.0 | 17.0 | 0.00 | 0.01 | 0.01 | 82 | 1020.7 |
| 20260831234923 | 82 | 84 | 12.0 | 17.0 | 0.00 | 0.01 | 0.01 | 81 | 1020.7 |
| 20260831234423 | 82 | 98 | 17.0 | 21.0 | 0.00 | 0.01 | 0.01 | 81 | 1020.4 |
| 20260831233919 | 82 | 103 | 8.0 | 15.0 | 0.00 | 0.01 | 0.01 | 80 | 1020.3 |
| 20260831233414 | 82 | 62 | 8.0 | 16.0 | 0.00 | 0.01 | 0.01 | 79 | 1020.4 |
| 20260831232909 | 82 | 80 | 5.0 | 16.0 | 0.00 | 0.01 | 0.01 | 79 | 1020.3 |
| 20260831232405 | 82 | 100 | 13.0 | 15.0 | 0.00 | 0.01 | 0.01 | 79 | 1020.3 |
| 20260831231900 | 82 | 85 | 15.0 | 18.0 | 0.00 | 0.01 | 0.01 | 80 | 1020.2 |
| 20260831231357 | 82 | 136 | 10.0 | 21.0 | 0.00 | 0.01 | 0.01 | 81 | 1020.1 |
| 20260831230853 | 82 | 224 | 3.0 | 11.0 | 0.00 | 0.01 | 0.01 | 81 | 1020.2 |
| 20260831230352 | 82 | 83 | 13.0 | 18.0 | 0.00 | 0.01 | 0.01 | 81 | 1020.0 |
| 20260831225847 | 82 | 123 | 13.0 | 18.0 | 0.00 | 0.01 | 0.01 | 81 | 1020.1 |
| 20260831225342 | 82 | 150 | 7.0 | 23.0 | 0.00 | 0.01 | 0.01 | 81 | 1020.2 |
| 20260831224837 | 82 | 106 | 15.0 | 21.0 | 0.00 | 0.01 | 0.01 | 81 | 1020.0 |
| 20260831224332 | 82 | 83 | 9.0 | 17.0 | 0.00 | 0.01 | 0.01 | 81 | 1020.0 |
| 20260831223827 | 82 | 68 | 9.0 | 10.0 | 0.00 | 0.01 | 0.01 | 80 | 1019.9 |
| 20260831223323 | 82 | 80 | 11.0 | 15.0 | 0.00 | 0.01 | 0.01 | 81 | 1019.8 |
| 20260831222820 | 82 | 137 | 11.0 | 21.0 | 0.00 | 0.01 | 0.01 | 81 | 1020.0 |
| 20260831222315 | 82 | 86 | 12.0 | 18.0 | 0.00 | 0.01 | 0.01 | 81 | 1019.8 |
| 20260831221810 | 82 | 118 | 8.0 | 17.0 | 0.00 | 0.01 | 0.01 | 81 | 1019.8 |
| 20260831221306 | 82 | 120 | 11.0 | 17.0 | 0.00 | 0.01 | 0.01 | 81 | 1019.6 |
| 20260831220806 | 82 | 102 | 13.0 | 17.0 | 0.00 | 0.01 | 0.01 | 81 | 1019.8 |
| 20260831220301 | 82 | 125 | 14.0 | 18.0 | 0.00 | 0.01 | 0.01 | 81 | 1019.5 |
| 20260831215756 | 82 | 102 | 16.0 | 21.0 | 0.00 | 0.01 | 0.01 | 80 | 1019.5 |
| 20260831215253 | 82 | 90 | 14.0 | 19.0 | 0.00 | 0.01 | 0.01 | 80 | 1019.3 |
| 20260831214749 | 83 | 109 | 13.0 | 21.0 | 0.00 | 0.01 | 0.01 | 80 | 1019.1 |
| 20260831214246 | 83 | 109 | 13.0 | 21.0 | 0.00 | 0.01 | 0.01 | 80 | 1019.3 |
| 20260831213741 | 83 | 90 | 13.0 | 19.0 | 0.00 | 0.01 | 0.01 | 80 | 1019.2 |
| 20260831213238 | 83 | 85 | 13.0 | 17.0 | 0.00 | 0.01 | 0.01 | 79 | 1019.4 |
| 20260831212737 | 83 | 101 | 12.0 | 15.0 | 0.00 | 0.01 | 0.01 | 79 | 1019.4 |
| 20260831212234 | 83 | 106 | 13.0 | 15.0 | 0.00 | 0.01 | 0.01 | 79 | 1019.5 |
| 20260831211732 | 83 | 114 | 8.0 | 21.0 | 0.00 | 0.01 | 0.01 | 79 | 1019.5 |
| 20260831211229 | 83 | 130 | 8.0 | 15.0 | 0.00 | 0.01 | 0.01 | 80 | 1019.6 |
| 20260831210723 | 83 | 116 | 14.0 | 16.0 | 0.00 | 0.01 | 0.01 | 79 | 1019.7 |
| 20260831210219 | 83 | 76 | 9.0 | 18.0 | 0.00 | 0.01 | 0.01 | 79 | 1019.6 |
| 20260831205717 | 83 | 107 | 12.0 | 17.0 | 0.00 | 0.01 | 0.01 | 79 | 1019.7 |
| 20260831205214 | 83 | 91 | 13.0 | 16.0 | 0.00 | 0.01 | 0.01 | 79 | 1019.7 |
| 20260831204708 | 83 | 97 | 13.0 | 23.0 | 0.00 | 0.01 | 0.01 | 79 | 1019.7 |
| 20260831204208 | 83 | 113 | 16.0 | 19.0 | 0.00 | 0.01 | 0.01 | 79 | 1019.5 |
| 20260831203702 | 83 | 76 | 8.0 | 15.0 | 0.00 | 0.01 | 0.01 | 79 | 1019.6 |
| 20260831203201 | 84 | 202 | 7.0 | 16.0 | 0.00 | 0.01 | 0.01 | 79 | 1019.7 |
| 20260831202659 | 84 | 96 | 11.0 | 17.0 | 0.00 | 0.01 | 0.01 | 79 | 1019.5 |
| 20260831202155 | 83 | 132 | 10.0 | 15.0 | 0.00 | 0.01 | 0.01 | 79 | 1019.4 |
| 20260831201654 | 84 | 98 | 14.0 | 19.0 | 0.00 | 0.01 | 0.01 | 79 | 1019.2 |
| 20260831201148 | 84 | 118 | 14.0 | 22.0 | 0.00 | 0.01 | 0.01 | 78 | 1019.4 |
| 20260831200644 | 84 | 101 | 12.0 | 16.0 | 0.00 | 0.01 | 0.01 | 78 | 1019.4 |
| 20260831200139 | 84 | 121 | 13.0 | 17.0 | 0.00 | 0.01 | 0.01 | 77 | 1019.6 |
| 20260831195635 | 84 | 95 | 11.0 | 15.0 | 0.00 | 0.01 | 0.01 | 78 | 1019.6 |
| 20260831195135 | 84 | 122 | 13.0 | 16.0 | 0.00 | 0.01 | 0.01 | 77 | 1019.8 |
| 20260831194630 | 84 | 81 | 12.0 | 18.0 | 0.00 | 0.01 | 0.01 | 77 | 1019.5 |
| 20260831194125 | 84 | 104 | 12.0 | 18.0 | 0.00 | 0.01 | 0.01 | 77 | 1019.7 |
| 20260831193620 | 84 | 149 | 12.0 | 21.0 | 0.00 | 0.01 | 0.01 | 77 | 1019.6 |
| 20260831193115 | 84 | 76 | 11.0 | 17.0 | 0.00 | 0.01 | 0.01 | 77 | 1019.6 |
| 20260831192610 | 84 | 112 | 13.0 | 16.0 | 0.00 | 0.01 | 0.01 | 77 | 1019.7 |
| 20260831192106 | 84 | 125 | 14.0 | 21.0 | 0.00 | 0.01 | 0.01 | 77 | 1019.6 |
| 20260831191601 | 84 | 108 | 11.0 | 17.0 | 0.00 | 0.01 | 0.01 | 77 | 1019.9 |
| 20260831191057 | 84 | 123 | 12.0 | 16.0 | 0.00 | 0.01 | 0.01 | 77 | 1020.0 |
| 20260831190552 | 84 | 117 | 10.0 | 16.0 | 0.00 | 0.01 | 0.01 | 77 | 1020.0 |
| 20260831190050 | 85 | 101 | 17.0 | 21.0 | 0.00 | 0.01 | 0.01 | 76 | 1020.0 |
| 20260831185546 | 84 | 84 | 13.0 | 16.0 | 0.00 | 0.01 | 0.01 | 77 | 1020.1 |
| 20260831185042 | 85 | 100 | 14.0 | 21.0 | 0.00 | 0.01 | 0.01 | 76 | 1020.2 |
| 20260831184541 | 85 | 93 | 10.0 | 19.0 | 0.00 | 0.01 | 0.01 | 76 | 1020.0 |
| 20260831184037 | 85 | 96 | 11.0 | 19.0 | 0.00 | 0.01 | 0.01 | 75 | 1020.2 |
| 20260831183536 | 86 | 76 | 18.0 | 23.0 | 0.00 | 0.01 | 0.01 | 73 | 1020.0 |
| 20260831183036 | 86 | 96 | 11.0 | 21.0 | 0.00 | 0.01 | 0.01 | 73 | 1020.2 |
| 20260831182531 | 87 | 93 | 16.0 | 19.0 | 0.00 | 0.01 | 0.01 | 73 | 1020.1 |
| 20260831182027 | 87 | 78 | 16.0 | 22.0 | 0.00 | 0.01 | 0.01 | 72 | 1020.0 |
| 20260831181526 | 87 | 134 | 14.0 | 23.0 | 0.00 | 0.01 | 0.01 | 71 | 1020.1 |
| 20260831181026 | 87 | 126 | 13.0 | 21.0 | 0.00 | 0.01 | 0.01 | 73 | 1020.3 |
| 20260831180521 | 87 | 104 | 19.0 | 22.0 | 0.00 | 0.01 | 0.01 | 72 | 1020.1 |
| 20260831180016 | 87 | 94 | 16.0 | 23.0 | 0.00 | 0.01 | 0.01 | 72 | 1020.3 |
| 20260831175511 | 88 | 112 | 17.0 | 23.0 | 0.00 | 0.01 | 0.01 | 69 | 1020.4 |
| 20260831175008 | 87 | 100 | 15.0 | 18.0 | 0.00 | 0.01 | 0.01 | 72 | 1020.4 |
| 20260831174503 | 88 | 110 | 18.0 | 23.0 | 0.00 | 0.01 | 0.01 | 69 | 1020.5 |
| 20260831174002 | 88 | 140 | 15.0 | 18.0 | 0.00 | 0.01 | 0.01 | 69 | 1020.5 |
| 20260831173501 | 89 | 106 | 9.0 | 18.0 | 0.00 | 0.01 | 0.01 | 69 | 1020.7 |
| 20260831172957 | 88 | 55 | 11.0 | 23.0 | 0.00 | 0.01 | 0.01 | 70 | 1020.8 |
| 20260831172453 | 89 | 117 | 15.0 | 25.0 | 0.00 | 0.01 | 0.01 | 69 | 1020.8 |
| 20260831171948 | 88 | 148 | 11.0 | 21.0 | 0.00 | 0.01 | 0.01 | 69 | 1020.6 |
| 20260831171443 | 88 | 67 | 11.0 | 21.0 | 0.00 | 0.01 | 0.01 | 70 | 1020.8 |
| 20260831170940 | 88 | 100 | 13.0 | 23.0 | 0.00 | 0.01 | 0.01 | 70 | 1020.7 |
| 20260831170436 | 87 | 96 | 17.0 | 21.0 | 0.00 | 0.01 | 0.01 | 70 | 1020.7 |
| 20260831165932 | 88 | 89 | 13.0 | 24.0 | 0.00 | 0.01 | 0.01 | 70 | 1020.8 |
| 20260831165428 | 87 | 64 | 16.0 | 24.0 | 0.00 | 0.01 | 0.01 | 70 | 1021.0 |
| 20260831164925 | 87 | 121 | 16.0 | 25.0 | 0.00 | 0.01 | 0.01 | 70 | 1021.1 |
| 20260831164421 | 88 | 123 | 16.0 | 24.0 | 0.00 | 0.01 | 0.01 | 69 | 1021.2 |
| 20260831163920 | 87 | 79 | 19.0 | 24.0 | 0.00 | 0.01 | 0.01 | 70 | 1021.1 |
| 20260831163416 | 87 | 71 | 17.0 | 22.0 | 0.00 | 0.01 | 0.01 | 70 | 1021.4 |
| 20260831162915 | 88 | 62 | 17.0 | 24.0 | 0.00 | 0.01 | 0.01 | 69 | 1021.2 |
| 20260831162410 | 88 | 120 | 17.0 | 23.0 | 0.00 | 0.01 | 0.01 | 70 | 1021.2 |
| 20260831161908 | 87 | 165 | 18.0 | 25.0 | 0.00 | 0.01 | 0.01 | 70 | 1021.3 |
| 20260831161405 | 87 | 161 | 15.0 | 22.0 | 0.00 | 0.01 | 0.01 | 71 | 1021.2 |
| 20260831160900 | 87 | 132 | 15.0 | 24.0 | 0.00 | 0.01 | 0.01 | 69 | 1021.2 |
| 20260831160355 | 88 | 148 | 17.0 | 21.0 | 0.00 | 0.01 | 0.01 | 68 | 1021.2 |
| 20260831155850 | 87 | 127 | 18.0 | 25.0 | 0.00 | 0.01 | 0.01 | 69 | 1021.4 |
| 20260831155349 | 87 | 150 | 16.0 | 18.0 | 0.00 | 0.01 | 0.01 | 69 | 1021.5 |
| 20260831154845 | 87 | 202 | 13.0 | 23.0 | 0.00 | 0.01 | 0.01 | 71 | 1021.3 |
| 20260831154342 | 87 | 154 | 11.0 | 26.0 | 0.00 | 0.01 | 0.01 | 70 | 1021.6 |
| 20260831153840 | 87 | 99 | 18.0 | 22.0 | 0.00 | 0.01 | 0.01 | 70 | 1021.3 |
| 20260831153336 | 87 | 132 | 16.0 | 19.0 | 0.00 | 0.01 | 0.01 | 70 | 1021.2 |
| 20260831152832 | 87 | 109 | 17.0 | 26.0 | 0.00 | 0.01 | 0.01 | 71 | 1021.2 |
| 20260831152328 | 87 | 118 | 19.0 | 24.0 | 0.00 | 0.01 | 0.01 | 70 | 1021.2 |
| 20260831151823 | 87 | 116 | 22.0 | 24.0 | 0.00 | 0.01 | 0.01 | 70 | 1021.2 |
| 20260831151322 | 86 | 101 | 16.0 | 24.0 | 0.00 | 0.01 | 0.01 | 72 | 1021.2 |
| 20260831150817 | 86 | 112 | 14.0 | 23.0 | 0.00 | 0.01 | 0.01 | 73 | 1021.1 |
| 20260831150313 | 87 | 76 | 11.0 | 25.0 | 0.00 | 0.01 | 0.01 | 72 | 1020.8 |
| 20260831145811 | 87 | 122 | 17.0 | 27.0 | 0.00 | 0.01 | 0.01 | 72 | 1020.8 |
| 20260831145308 | 87 | 70 | 17.0 | 24.0 | 0.00 | 0.01 | 0.01 | 73 | 1021.0 |
| 20260831144804 | 87 | 28 | 15.0 | 24.0 | 0.00 | 0.01 | 0.01 | 73 | 1020.7 |
| 20260831144300 | 87 | 157 | 12.0 | 24.0 | 0.00 | 0.01 | 0.01 | 73 | 1020.6 |
| 20260831143759 | 87 | 121 | 14.0 | 19.0 | 0.00 | 0.01 | 0.01 | 73 | 1020.6 |
| 20260831143254 | 87 | 103 | 11.0 | 24.0 | 0.00 | 0.01 | 0.01 | 73 | 1020.5 |
| 20260831142749 | 88 | 127 | 18.0 | 25.0 | 0.00 | 0.01 | 0.01 | 70 | 1020.4 |
| 20260831142245 | 87 | 99 | 17.0 | 19.0 | 0.00 | 0.01 | 0.01 | 72 | 1020.7 |
| 20260831141739 | 86 | 151 | 16.0 | 22.0 | 0.00 | 0.01 | 0.01 | 75 | 1020.4 |
| 20260831141234 | 86 | 78 | 14.0 | 23.0 | 0.00 | 0.01 | 0.01 | 74 | 1020.6 |
| 20260831140734 | 86 | 123 | 16.0 | 23.0 | 0.00 | 0.01 | 0.01 | 73 | 1020.5 |
| 20260831140229 | 86 | 112 | 13.0 | 22.0 | 0.00 | 0.01 | 0.01 | 73 | 1020.4 |
| 20260831135726 | 86 | 166 | 10.0 | 18.0 | 0.00 | 0.01 | 0.01 | 74 | 1020.5 |
| 20260831135223 | 87 | 95 | 20.0 | 26.0 | 0.00 | 0.01 | 0.01 | 71 | 1020.2 |
| 20260831134718 | 86 | 34 | 9.0 | 19.0 | 0.00 | 0.01 | 0.01 | 74 | 1020.0 |
| 20260831134215 | 86 | 118 | 18.0 | 24.0 | 0.00 | 0.01 | 0.01 | 74 | 1019.9 |
| 20260831133713 | 86 | 93 | 13.0 | 25.0 | 0.00 | 0.01 | 0.01 | 74 | 1020.0 |
| 20260831133208 | 86 | 110 | 18.0 | 23.0 | 0.00 | 0.01 | 0.01 | 73 | 1020.0 |
| 20260831132703 | 86 | 96 | 18.0 | 24.0 | 0.00 | 0.01 | 0.01 | 74 | 1020.1 |
| 20260831132203 | 84 | 112 | 17.0 | 22.0 | 0.00 | 0.01 | 0.01 | 77 | 1019.6 |
| 20260831131702 | 84 | 95 | 15.0 | 19.0 | 0.00 | 0.01 | 0.01 | 79 | 1020.0 |
| 20260831131159 | 84 | 134 | 16.0 | 22.0 | 0.00 | 0.01 | 0.01 | 79 | 1020.1 |
| 20260831130654 | 84 | 113 | 13.0 | 22.0 | 0.00 | 0.01 | 0.01 | 79 | 1019.8 |
| 20260831130149 | 85 | 104 | 18.0 | 24.0 | 0.00 | 0.01 | 0.01 | 78 | 1019.8 |
| 20260831125648 | 84 | 86 | 15.0 | 22.0 | 0.00 | 0.01 | 0.01 | 80 | 1019.9 |
| 20260831125144 | 83 | 110 | 16.0 | 21.0 | 0.00 | 0.01 | 0.01 | 81 | 1019.8 |
| 20260831124640 | 82 | 105 | 11.0 | 22.0 | 0.00 | 0.01 | 0.01 | 84 | 1019.6 |
| 20260831124136 | 83 | 103 | 16.0 | 23.0 | 0.00 | 0.01 | 0.01 | 83 | 1019.9 |
| 20260831123635 | 82 | 133 | 16.0 | 18.0 | 0.00 | 0.01 | 0.01 | 86 | 1019.6 |
| 20260831123134 | 80 | 165 | 11.0 | 21.0 | 0.00 | 0.01 | 0.01 | 88 | 1019.6 |
| 20260831122634 | 79 | 137 | 15.0 | 19.0 | 0.00 | 0.01 | 0.01 | 88 | 1019.7 |
| 20260831122130 | 79 | 122 | 14.0 | 23.0 | 0.00 | 0.01 | 0.01 | 85 | 1019.8 |
| 20260831121629 | 81 | 91 | 18.0 | 25.0 | 0.00 | 0.01 | 0.01 | 82 | 1019.6 |
| 20260831121126 | 82 | 118 | 12.0 | 21.0 | 0.00 | 0.01 | 0.01 | 83 | 1019.5 |
| 20260831120626 | 82 | 81 | 20.0 | 23.0 | 0.00 | 0.01 | 0.01 | 82 | 1019.6 |
| 20260831120121 | 82 | 118 | 17.0 | 24.0 | 0.00 | 0.01 | 0.01 | 82 | 1019.4 |
| 20260831115617 | 82 | 60 | 11.0 | 25.0 | 0.00 | 0.01 | 0.01 | 84 | 1019.3 |
| 20260831115113 | 81 | 95 | 13.0 | 24.0 | 0.00 | 0.01 | 0.01 | 85 | 1019.4 |
| 20260831114611 | 81 | 99 | 22.0 | 26.0 | 0.00 | 0.01 | 0.01 | 85 | 1019.2 |
| 20260831114107 | 81 | 94 | 14.0 | 23.0 | 0.00 | 0.01 | 0.01 | 86 | 1019.3 |
| 20260831113606 | 81 | 102 | 19.0 | 24.0 | 0.00 | 0.01 | 0.01 | 85 | 1019.4 |
| 20260831113102 | 80 | 114 | 17.0 | 25.0 | 0.00 | 0.01 | 0.01 | 86 | 1019.4 |
| 20260831112600 | 81 | 123 | 14.0 | 25.0 | 0.00 | 0.01 | 0.01 | 86 | 1019.3 |
| 20260831112056 | 80 | 111 | 12.0 | 25.0 | 0.00 | 0.01 | 0.01 | 87 | 1019.4 |
| 20260831111552 | 80 | 124 | 12.0 | 22.0 | 0.00 | 0.01 | 0.01 | 87 | 1019.1 |
| 20260831111047 | 80 | 118 | 21.0 | 26.0 | 0.00 | 0.01 | 0.01 | 89 | 1019.0 |
| 20260831110542 | 79 | 103 | 15.0 | 19.0 | 0.00 | 0.01 | 0.01 | 90 | 1019.1 |
| 20260831110037 | 79 | 114 | 18.0 | 24.0 | 0.00 | 0.01 | 0.01 | 90 | 1019.0 |
| 20260831105537 | 79 | 100 | 17.0 | 24.0 | 0.00 | 0.01 | 0.01 | 90 | 1019.0 |
| 20260831105032 | 79 | 90 | 15.0 | 24.0 | 0.00 | 0.01 | 0.01 | 91 | 1019.0 |
| 20260831104528 | 79 | 110 | 18.0 | 26.0 | 0.00 | 0.01 | 0.01 | 91 | 1018.9 |
| 20260831104024 | 79 | 85 | 16.0 | 23.0 | 0.00 | 0.01 | 0.01 | 91 | 1018.7 |
| 20260831103519 | 79 | 87 | 18.0 | 25.0 | 0.00 | 0.01 | 0.01 | 92 | 1018.7 |
| 20260831103015 | 79 | 98 | 17.0 | 24.0 | 0.00 | 0.01 | 0.01 | 92 | 1018.8 |
| 20260831102514 | 79 | 137 | 18.0 | 24.0 | 0.00 | 0.01 | 0.01 | 92 | 1018.6 |
| 20260831102009 | 79 | 188 | 15.0 | 27.0 | 0.00 | 0.01 | 0.01 | 92 | 1018.6 |
| 20260831101504 | 78 | 113 | 12.0 | 24.0 | 0.00 | 0.01 | 0.01 | 92 | 1018.7 |
| 20260831101000 | 79 | 88 | 15.0 | 19.0 | 0.00 | 0.01 | 0.01 | 92 | 1018.6 |
| 20260831100456 | 79 | 148 | 19.0 | 23.0 | 0.00 | 0.01 | 0.01 | 92 | 1018.4 |
| 20260831095951 | 79 | 105 | 14.0 | 23.0 | 0.00 | 0.01 | 0.01 | 92 | 1018.3 |
| 20260831095451 | 79 | 151 | 11.0 | 18.0 | 0.00 | 0.01 | 0.01 | 91 | 1018.4 |
| 20260831094945 | 79 | 155 | 8.0 | 24.0 | 0.05 | 0.01 | 0.01 | 91 | 1018.4 |
| 20260831094442 | 79 | 80 | 15.0 | 25.0 | 0.05 | 0.01 | 0.01 | 90 | 1018.3 |
| 20260831093937 | 80 | 51 | 10.0 | 14.0 | 0.00 | 0.00 | 0.00 | 89 | 1018.1 |
| 20260831093432 | 80 | 63 | 17.0 | 21.0 | 0.00 | 0.00 | 0.00 | 89 | 1018.1 |
| 20260831092929 | 80 | 97 | 9.0 | 19.0 | 0.00 | 0.00 | 0.00 | 89 | 1018.1 |
| 20260831092424 | 80 | 109 | 16.0 | 24.0 | 0.00 | 0.00 | 0.00 | 89 | 1018.2 |
| 20260831091919 | 80 | 112 | 16.0 | 21.0 | 0.00 | 0.00 | 0.00 | 89 | 1018.1 |
| 20260831091414 | 80 | 106 | 14.0 | 16.0 | 0.00 | 0.00 | 0.00 | 89 | 1018.2 |
| 20260831090910 | 80 | 124 | 14.0 | 21.0 | 0.00 | 0.00 | 0.00 | 89 | 1018.4 |
| 20260831090407 | 80 | 125 | 13.0 | 21.0 | 0.00 | 0.00 | 0.00 | 90 | 1018.1 |
| 20260831085903 | 80 | 80 | 14.0 | 25.0 | 0.00 | 0.00 | 0.00 | 90 | 1018.2 |
| 20260831085402 | 80 | 50 | 17.0 | 23.0 | 0.00 | 0.00 | 0.00 | 90 | 1018.1 |
| 20260831084901 | 80 | 114 | 18.0 | 24.0 | 0.00 | 0.00 | 0.00 | 90 | 1017.8 |
| 20260831084358 | 80 | 95 | 16.0 | 22.0 | 0.00 | 0.00 | 0.00 | 90 | 1018.2 |
| 20260831083854 | 80 | 84 | 17.0 | 25.0 | 0.00 | 0.00 | 0.00 | 90 | 1017.8 |
| 20260831083349 | 80 | 89 | 14.0 | 25.0 | 0.00 | 0.00 | 0.00 | 90 | 1017.8 |
| 20260831082848 | 80 | 82 | 13.0 | 22.0 | 0.00 | 0.00 | 0.00 | 90 | 1017.9 |
| 20260831082343 | 80 | 93 | 19.0 | 26.0 | 0.00 | 0.00 | 0.00 | 90 | 1017.9 |
| 20260831081839 | 79 | 83 | 14.0 | 21.0 | 0.00 | 0.00 | 0.00 | 90 | 1017.8 |
| 20260831081334 | 79 | 108 | 14.0 | 22.0 | 0.00 | 0.00 | 0.00 | 90 | 1017.9 |
| 20260831080830 | 79 | 78 | 17.0 | 24.0 | 0.00 | 0.00 | 0.00 | 91 | 1017.7 |
| 20260831080325 | 79 | 123 | 15.0 | 19.0 | 0.00 | 0.00 | 0.00 | 91 | 1017.8 |
| 20260831075820 | 79 | 98 | 14.0 | 18.0 | 0.00 | 0.00 | 0.00 | 91 | 1017.9 |
| 20260831075315 | 79 | 175 | 12.0 | 17.0 | 0.00 | 0.00 | 0.00 | 91 | 1017.9 |
| 20260831074815 | 80 | 92 | 14.0 | 25.0 | 0.00 | 0.00 | 0.00 | 91 | 1017.9 |
| 20260831074315 | 80 | 110 | 12.0 | 22.0 | 0.00 | 0.00 | 0.00 | 91 | 1017.6 |
| 20260831073811 | 79 | 80 | 17.0 | 23.0 | 0.00 | 0.00 | 0.00 | 91 | 1017.9 |
| 20260831073309 | 79 | 101 | 14.0 | 23.0 | 0.00 | 0.00 | 0.00 | 92 | 1017.8 |
| 20260831072804 | 79 | 91 | 15.0 | 21.0 | 0.00 | 0.00 | 0.00 | 92 | 1017.9 |
| 20260831072300 | 79 | 93 | 14.0 | 23.0 | 0.00 | 0.00 | 0.00 | 92 | 1017.8 |
| 20260831071755 | 79 | 149 | 11.0 | 21.0 | 0.00 | 0.00 | 0.00 | 92 | 1018.1 |
| 20260831071245 | 79 | 94 | 15.0 | 21.0 | 0.00 | 0.00 | 0.00 | 92 | 1018.1 |
| 20260831070744 | 79 | 86 | 14.0 | 21.0 | 0.00 | 0.00 | 0.00 | 92 | 1018.1 |
| 20260831070243 | 79 | 212 | 9.0 | 18.0 | 0.00 | 0.00 | 0.00 | 92 | 1017.9 |
| 20260831065742 | 79 | 52 | 15.0 | 18.0 | 0.00 | 0.00 | 0.00 | 92 | 1018.2 |
| 20260831065241 | 79 | 106 | 15.0 | 24.0 | 0.00 | 0.00 | 0.00 | 92 | 1018.2 |
| 20260831064736 | 79 | 117 | 9.0 | 21.0 | 0.00 | 0.00 | 0.00 | 92 | 1018.1 |
| 20260831064231 | 79 | 77 | 14.0 | 16.0 | 0.00 | 0.00 | 0.00 | 91 | 1018.2 |
| 20260831063727 | 79 | 165 | 12.0 | 17.0 | 0.00 | 0.00 | 0.00 | 91 | 1017.9 |
| 20260831063222 | 79 | 155 | 10.0 | 17.0 | 0.00 | 0.00 | 0.00 | 91 | 1018.1 |
| 20260831062721 | 79 | 100 | 13.0 | 23.0 | 0.00 | 0.00 | 0.00 | 90 | 1017.9 |
| 20260831062217 | 79 | 110 | 13.0 | 21.0 | 0.00 | 0.00 | 0.00 | 90 | 1018.2 |
| 20260831061715 | 79 | 151 | 15.0 | 19.0 | 0.00 | 0.00 | 0.00 | 90 | 1018.4 |
| 20260831061211 | 79 | 106 | 15.0 | 18.0 | 0.00 | 0.00 | 0.00 | 90 | 1018.2 |
| 20260831060707 | 79 | 107 | 11.0 | 23.0 | 0.00 | 0.00 | 0.00 | 90 | 1018.5 |
| 20260831060207 | 79 | 96 | 16.0 | 21.0 | 0.00 | 0.00 | 0.00 | 90 | 1018.5 |
| 20260831055706 | 79 | 78 | 14.0 | 18.0 | 0.00 | 0.00 | 0.00 | 90 | 1018.3 |
| 20260831055201 | 79 | 90 | 15.0 | 24.0 | 0.00 | 0.00 | 0.00 | 89 | 1018.5 |
| 20260831054655 | 79 | 80 | 14.0 | 31.0 | 0.00 | 0.00 | 0.00 | 89 | 1018.5 |
| 20260831054150 | 79 | 66 | 18.0 | 21.0 | 0.00 | 0.00 | 0.00 | 89 | 1018.5 |
| 20260831053649 | 79 | 86 | 19.0 | 23.0 | 0.00 | 0.00 | 0.00 | 89 | 1018.6 |
| 20260831053148 | 79 | 177 | 14.0 | 27.0 | 0.00 | 0.00 | 0.00 | 89 | 1018.6 |
| 20260831052648 | 79 | 111 | 14.0 | 26.0 | 0.00 | 0.00 | 0.00 | 89 | 1018.5 |
| 20260831052147 | 79 | 91 | 20.0 | 23.0 | 0.00 | 0.00 | 0.00 | 89 | 1018.6 |
| 20260831051645 | 79 | 118 | 9.0 | 21.0 | 0.00 | 0.00 | 0.00 | 88 | 1018.5 |
| 20260831051144 | 79 | 109 | 18.0 | 21.0 | 0.00 | 0.00 | 0.00 | 88 | 1018.5 |
| 20260831050639 | 79 | 75 | 17.0 | 23.0 | 0.00 | 0.00 | 0.00 | 88 | 1018.8 |
| 20260831050138 | 79 | 81 | 20.0 | 25.0 | 0.00 | 0.00 | 0.00 | 88 | 1018.8 |
| 20260831045638 | 79 | 134 | 16.0 | 23.0 | 0.00 | 0.00 | 0.00 | 87 | 1018.9 |
| 20260831045133 | 79 | 90 | 16.0 | 21.0 | 0.00 | 0.00 | 0.00 | 87 | 1019.0 |
| 20260831044628 | 79 | 106 | 14.0 | 19.0 | 0.00 | 0.00 | 0.00 | 87 | 1019.2 |
| 20260831044123 | 79 | 74 | 15.0 | 21.0 | 0.00 | 0.00 | 0.00 | 87 | 1019.1 |
| 20260831043619 | 79 | 91 | 14.0 | 18.0 | 0.00 | 0.00 | 0.00 | 87 | 1019.2 |
| 20260831043114 | 79 | 95 | 14.0 | 26.0 | 0.00 | 0.00 | 0.00 | 87 | 1019.4 |
| 20260831042614 | 79 | 95 | 19.0 | 26.0 | 0.00 | 0.00 | 0.00 | 87 | 1019.4 |
| 20260831042109 | 79 | 93 | 14.0 | 22.0 | 0.00 | 0.00 | 0.00 | 87 | 1019.4 |
| 20260831041604 | 79 | 87 | 17.0 | 22.0 | 0.00 | 0.00 | 0.00 | 87 | 1019.4 |
| 20260831041103 | 79 | 97 | 15.0 | 23.0 | 0.00 | 0.00 | 0.00 | 87 | 1019.4 |
| 20260831040558 | 79 | 98 | 12.0 | 22.0 | 0.00 | 0.00 | 0.00 | 87 | 1019.5 |
| 20260831040057 | 79 | 131 | 17.0 | 22.0 | 0.00 | 0.00 | 0.00 | 86 | 1019.7 |
| 20260831035555 | 79 | 114 | 13.0 | 22.0 | 0.00 | 0.00 | 0.00 | 86 | 1019.8 |
| 20260831035051 | 79 | 104 | 17.0 | 19.0 | 0.00 | 0.00 | 0.00 | 86 | 1019.6 |
| 20260831034550 | 79 | 98 | 16.0 | 24.0 | 0.00 | 0.00 | 0.00 | 85 | 1019.9 |
| 20260831034046 | 79 | 86 | 10.0 | 17.0 | 0.00 | 0.00 | 0.00 | 85 | 1019.9 |
| 20260831033541 | 79 | 133 | 14.0 | 18.0 | 0.00 | 0.00 | 0.00 | 85 | 1019.7 |
| 20260831033036 | 79 | 106 | 13.0 | 21.0 | 0.00 | 0.00 | 0.00 | 85 | 1019.7 |
| 20260831032535 | 79 | 88 | 17.0 | 19.0 | 0.00 | 0.00 | 0.00 | 85 | 1019.9 |
| 20260831032031 | 79 | 107 | 13.0 | 19.0 | 0.00 | 0.00 | 0.00 | 85 | 1020.1 |
| 20260831031531 | 79 | 79 | 17.0 | 19.0 | 0.00 | 0.00 | 0.00 | 85 | 1019.7 |
| 20260831031030 | 79 | 101 | 15.0 | 18.0 | 0.00 | 0.00 | 0.00 | 85 | 1020.0 |
| 20260831030530 | 79 | 95 | 15.0 | 18.0 | 0.00 | 0.00 | 0.00 | 85 | 1019.8 |
| 20260831030029 | 79 | 339 | 9.0 | 23.0 | 0.00 | 0.00 | 0.00 | 85 | 1019.8 |
| 20260831025527 | 79 | 108 | 12.0 | 16.0 | 0.00 | 0.00 | 0.00 | 85 | 1019.8 |
| 20260831025022 | 79 | 104 | 14.0 | 16.0 | 0.00 | 0.00 | 0.00 | 85 | 1019.8 |
| 20260831024518 | 79 | 95 | 12.0 | 17.0 | 0.00 | 0.00 | 0.00 | 86 | 1019.6 |
| 20260831024018 | 79 | 196 | 7.0 | 15.0 | 0.00 | 0.00 | 0.00 | 86 | 1019.6 |
| 20260831023515 | 79 | 101 | 13.0 | 17.0 | 0.00 | 0.00 | 0.00 | 86 | 1019.7 |
| 20260831023010 | 79 | 153 | 13.0 | 18.0 | 0.00 | 0.00 | 0.00 | 87 | 1019.6 |
| 20260831022509 | 79 | 95 | 14.0 | 18.0 | 0.00 | 0.00 | 0.00 | 87 | 1019.7 |